Location: Chrząstowo
(52.0654°N, 17.1290°E)
Time: 14:09:35
(UTC+01:00)

Envisat - Pass Details

Date: 12 December 2019
Orbit: 764 x 766 km, 98.1° (Epoch: 17 January)

Event Time Altitude Azimuth Distance (km) Brightness Sun altitude
Rises 17:23:09 0° 159° (SSE) 3,223 6.2 -14.8°
Reaches altitude 10° 17:25:26 10° 158° (SSE) 2,301 5.4 -15.1°
Maximum altitude 17:30:30 78° 73° (ENE) 790 2.9 -15.9°
Drops below altitude 10° 17:35:37 10° 348° (NNW) 2,317 5.4 -16.6°
Sets 17:37:56 0° 347° (NNW) 3,248 6.2 -16.9°
